Location: Mentone
(34.5413°N, 85.5351°W)
Time: 18:42:59
(UTC-05:00)

Vanguard 3 - All Passes

Search period start: 29 June 2016 00:00
Search period end: 09 July 2016 00:00
Orbit: 510 x 3266 km, 33.3° (Epoch: 29 June)

Date Brightness Start Highest point End Pass type
(mag) Time Alt. Az. Time Alt. Az. Time Alt. Az.
29 Jun - 02:00:46 10° S 02:09:48 17° SSE 02:17:05 10° ESE visible
29 Jun - 04:10:58 10° SW 04:24:24 39° SSE 04:32:34 10° E visible
29 Jun - 06:26:29 10° WSW 06:37:48 69° SSE 06:44:00 10° E daylight
29 Jun - 08:42:38 10° W 08:50:07 79° S 08:54:37 10° E daylight
29 Jun - 10:57:10 10° W 11:01:19 30° SSW 11:04:39 10° SE daylight
30 Jun - 02:56:01 10° SSW 03:09:36 30° SSE 03:18:48 10° E visible
30 Jun - 05:10:12 10° SW 05:23:45 58° SSE 05:31:19 10° E daylight
30 Jun - 07:26:53 10° W 07:36:44 82° S 07:42:11 10° E daylight
30 Jun - 09:42:29 10° W 09:48:35 55° SSW 09:52:36 10° ESE daylight
30 Jun - 11:58:23 10° SW 11:59:12 11° SW 11:59:59 10° SSW daylight
01 Jul - 01:42:25 10° S 01:54:27 22° SSE 02:03:45 10° ESE visible
01 Jul - 03:54:09 10° SW 04:09:14 47° SSE 04:18:16 10° E visible
01 Jul - 06:10:29 10° WSW 06:22:56 76° S 06:29:40 10° E daylight
01 Jul - 08:27:12 10° W 08:35:29 76° S 08:40:18 10° ESE daylight
01 Jul - 10:42:20 10° W 10:46:38 26° SSW 10:49:56 10° SSE daylight
02 Jul - 00:31:43 10° SSE 00:39:04 13° SE 00:45:40 10° ESE visible
02 Jul - 02:38:48 10° SSW 02:54:14 37° SSE 03:04:35 10° E visible
02 Jul - 04:53:50 10° WSW 05:08:41 65° SSE 05:16:56 10° E visible
02 Jul - 07:11:08 10° W 07:21:58 83° S 07:27:53 10° E daylight
02 Jul - 09:27:15 10° W 09:33:55 50° SSW 09:38:10 10° SE daylight
03 Jul - 01:24:40 10° SSW 01:38:55 27° SE 01:49:49 10° E visible
03 Jul - 03:37:27 10° SW 03:53:56 54° SSE 04:03:50 10° E visible
03 Jul - 05:54:26 10° WSW 06:08:00 80° S 06:15:17 10° E daylight
03 Jul - 08:11:39 10° W 08:20:48 73° SSW 08:25:58 10° ESE daylight
03 Jul - 10:27:28 10° W 10:31:51 22° SW 10:35:09 10° SSE daylight
04 Jul - 00:12:36 10° S 00:23:28 18° SE 00:32:57 10° ESE visible
04 Jul - 02:21:47 10° SW 02:38:44 43° SSE 02:50:09 10° E visible
04 Jul - 04:37:30 10° WSW 04:53:31 72° SSE 05:02:28 10° E visible
04 Jul - 06:55:19 10° W 07:07:09 83° S 07:13:32 10° E daylight
04 Jul - 09:11:55 10° W 09:19:12 45° SSW 09:23:41 10° SE daylight
05 Jul - 01:07:18 10° SSW 01:23:15 32° SE 01:35:32 10° E visible
05 Jul - 03:20:51 10° SW 03:38:31 61° SSE 03:49:17 10° E visible
05 Jul - 05:38:21 10° W 05:52:58 83° S 06:00:53 10° E daylight
05 Jul - 07:56:00 10° W 08:06:01 69° SSW 08:11:36 10° ESE daylight
05 Jul - 10:12:33 10° W 10:16:58 20° SW 10:20:18 10° S daylight
05 Jul - 23:54:34 10° S 00:07:42 22° SE 00:19:13 10° E visible
06 Jul - 02:04:59 10° SW 02:23:05 49° SSE 02:35:34 10° E visible
06 Jul - 04:21:11 10° WSW 04:38:14 77° SSE 04:47:58 10° E visible
06 Jul - 06:39:23 10° W 06:52:16 82° S 06:59:10 10° E daylight
06 Jul - 08:56:29 10° W 09:04:21 41° SSW 09:09:09 10° SE daylight
06 Jul - 22:45:53 10° SSE 22:52:17 12° SE 22:58:31 10° ESE visible
07 Jul - 00:50:15 10° SSW 01:07:24 38° SSE 01:20:58 10° E visible
07 Jul - 03:04:21 10° WSW 03:22:59 67° SSE 03:34:40 10° E visible
07 Jul - 05:22:13 10° W 05:37:52 85° S 05:46:26 10° E daylight
07 Jul - 07:40:13 10° W 07:51:09 65° SSW 07:57:11 10° ESE daylight
07 Jul - 09:57:37 10° W 10:02:00 18° SW 10:05:21 10° S daylight
07 Jul - 23:37:07 10° S 23:51:47 26° SE 00:04:56 10° E visible
08 Jul - 01:48:21 10° SW 02:07:18 55° SSE 02:20:49 10° E visible
08 Jul - 04:04:54 10° WSW 04:22:53 81° S 04:33:24 10° E visible
08 Jul - 06:23:23 10° W 06:37:17 80° S 06:44:45 10° ESE daylight
08 Jul - 08:40:57 10° W 08:49:25 37° SW 08:54:34 10° SSE daylight
08 Jul - 22:26:45 10° SSE 22:36:24 16° SE 22:45:54 10° ESE visible
